Temp
-10 -11 -11 -11 -12 -12 -12 -12 -12 -13 -13 -13 -13 -14 -15 -15 -15 -16 -16 -16 -16 -16 -16 -15 -15 -15 -15 -15 -15 -15 -15 -15 -15 -14 -14 -14 -14 -14 -14 -15 -15 -15 -15 -15 -15 -15 -15 -15 -15 -14 -14 -14 -14 -15 -15 -14 -14 -14 -14 -14 -13 -13 -13 -13 -13 -12 -12 -12 -11
-11 -11 -11 -11 -12 -12 -12 -12 -12 -13 -13 -13 -14 -14 -15 -16 -16 -16 -16 -16 -16 -16 -16 -16 -15 -15 -15 -15 -15 -15 -15 -15 -15 -14 -14 -14 -14 -15 -15 -15 -15 -15 -15 -15 -15 -15 -15 -15 -15 -14 -14 -14 -14 -14 -15 -14 -14 -14 -14 -14 -13 -13 -13 -13 -12 -12 -12 -11 -11
-11 -11 -11 -11 -11 -11 -12 -12 -13 -13 -13 -13 -14 -15 -15 -16 -16 -16 -16 -16 -16 -16 -16 -16 -15 -15 -15 -15 -15 -15 -15 -15 -15 -15 -15 -15 -15 -15 -15 -15 -15 -15 -15 -15 -15 -15 -15 -15 -14 -14 -14 -14 -14 -14 -15 -14 -14 -14 -14 -13 -13 -13 -13 -13 -12 -12 -11 -11 -11
-11 -11 -11 -11 -11 -11 -12 -13 -13 -13 -13 -14 -14 -15 -15 -15 -16 -16 -16 -16 -15 -16 -16 -15 -15 -15 -15 -15 -15 -15 -15 -15 -15 -15 -15 -15 -15 -15 -15 -15 -15 -15 -15 -15 -15 -15 -14 -14 -14 -14 -14 -14 -15 -15 -15 -14 -14 -14 -14 -13 -13 -13 -13 -12 -12 -12 -11 -11 -11
-10 -10 -10 -11 -11 -12 -12 -13 -13 -13 -14 -14 -15 -15 -15 -15 -15 -15 -15 -15 -16 -16 -16 -15 -15 -15 -15 -15 -15 -15 -15 -15 -15 -15 -15 -15 -15 -15 -15 -15 -15 -15 -15 -15 -15 -15 -14 -14 -14 -14 -15 -15 -15 -15 -15 -14 -14 -13 -13 -13 -13 -13 -12 -12 -12 -11 -11 -11 -10
-10 -10 -10 -11 -11 -12 -13 -13 -13 -14 -14 -14 -15 -15 -15 -15 -16 -16 -16 -16 -16 -16 -16 -15 -15 -15 -15 -15 -15 -15 -15 -15 -15 -15 -15 -15 -15 -15 -15 -15 -15 -15 -15 -15 -15 -15 -15 -14 -14 -14 -14 -15 -15 -15 -14 -14 -13 -13 -13 -13 -12 -12 -12 -12 -11 -11 -11 -10 -10
-10 -10 -10 -11 -12 -12 -13 -13 -14 -14 -14 -15 -15 -15 -16 -16 -16 -16 -16 -16 -15 -15 -15 -15 -15 -15 -15 -15 -15 -15 -15 -15 -15 -15 -15 -15 -15 -15 -15 -15 -15 -15 -15 -15 -15 -15 -15 -15 -14 -14 -14 -15 -15 -14 -14 -13 -13 -13 -12 -12 -12 -12 -12 -11 -11 -11 -10 -10 -9
-10 -10 -11 -11 -12 -13 -13 -13 -14 -14 -15 -15 -15 -16 -16 -16 -16 -16 -16 -15 -15 -15 -15 -15 -15 -15 -15 -15 -15 -15 -15 -15 -15 -15 -15 -15 -15 -15 -15 -15 -15 -15 -15 -15 -15 -15 -15 -15 -14 -14 -14 -14 -14 -14 -13 -13 -13 -12 -12 -12 -12 -12 -11 -11 -11 -10 -10 -9 -9
-10 -10 -11 -12 -13 -13 -13 -14 -14 -15 -15 -15 -16 -16 -16 -16 -16 -16 -16 -15 -15 -15 -15 -15 -15 -15 -15 -15 -15 -15 -15 -15 -15 -15 -15 -15 -15 -15 -15 -15 -15 -14 -14 -14 -14 -14 -14 -15 -14 -14 -14 -14 -14 -13 -13 -13 -12 -12 -12 -12 -12 -11 -11 -10 -10 -10 -9 -9 -9
-10 -11 -12 -12 -13 -13 -14 -14 -15 -15 -15 -16 -16 -16 -15 -15 -16 -16 -15 -15 -15 -15 -15 -15 -15 -15 -15 -15 -15 -15 -15 -14 -14 -14 -14 -14 -14 -14 -14 -14 -14 -14 -14 -14 -14 -14 -14 -14 -14 -14 -14 -13 -13 -13 -12 -12 -12 -12 -12 -12 -11 -11 -10 -10 -10 -9 -9 -9 -9
-11 -12 -12 -13 -13 -14 -14 -14 -15 -15 -15 -16 -16 -16 -15 -15 -15 -15 -15 -15 -15 -15 -15 -15 -15 -15 -14 -14 -14 -14 -14 -14 -14 -14 -14 -14 -14 -14 -14 -14 -14 -14 -14 -14 -14 -14 -14 -14 -14 -13 -13 -13 -13 -12 -12 -12 -12 -12 -12 -11 -11 -10 -10 -9 -9 -9 -9 -9 -9
-12 -12 -13 -13 -13 -14 -14 -15 -15 -15 -15 -16 -16 -16 -15 -15 -15 -15 -15 -15 -15 -14 -14 -14 -14 -14 -14 -14 -14 -14 -14 -14 -14 -14 -14 -14 -14 -14 -14 -14 -14 -14 -14 -14 -14 -14 -14 -13 -13 -13 -13 -13 -12 -12 -12 -12 -12 -11 -11 -11 -11 -10 -9 -9 -9 -9 -9 -9 -9
-12 -12 -13 -13 -14 -14 -15 -15 -15 -16 -16 -16 -16 -16 -15 -15 -15 -15 -15 -14 -14 -14 -14 -14 -14 -14 -14 -14 -14 -14 -14 -14 -14 -14 -14 -14 -14 -13 -13 -13 -13 -13 -13 -13 -13 -13 -13 -13 -12 -12 -12 -12 -12 -12 -12 -12 -11 -11 -11 -10 -10 -9 -9 -9 -9 -9 -9 -9 -9
-12 -12 -13 -13 -14 -14 -15 -15 -15 -16 -16 -16 -16 -15 -15 -15 -15 -15 -14 -14 -14 -14 -14 -14 -14 -14 -14 -14 -14 -14 -14 -14 -14 -14 -14 -13 -13 -13 -13 -13 -13 -13 -12 -12 -12 -12 -12 -12 -12 -12 -12 -12 -12 -11 -11 -11 -11 -11 -10 -10 -9 -9 -9 -9 -9 -9 -9 -9 -9
-12 -12 -13 -13 -14 -15 -15 -15 -15 -16 -16 -16 -15 -15 -15 -15 -14 -14 -14 -14 -13 -13 -13 -13 -13 -13 -14 -14 -14 -14 -13 -13 -13 -13 -13 -13 -13 -13 -12 -12 -12 -12 -12 -12 -12 -12 -12 -12 -12 -12 -12 -11 -11 -11 -11 -10 -10 -10 -10 -9 -9 -9 -9 -9 -9 -9 -9 -9 -9
-12 -13 -13 -13 -14 -15 -15 -15 -15 -15 -15 -15 -15 -15 -15 -14 -14 -14 -14 -13 -13 -13 -13 -13 -13 -13 -13 -13 -13 -13 -13 -13 -13 -13 -13 -12 -12 -12 -12 -12 -12 -13 -13 -13 -13 -12 -12 -12 -12 -12 -11 -11 -10 -10 -10 -10 -10 -9 -9 -9 -9 -9 -9 -9 -9 -9 -9 -9 -9
-12 -13 -13 -14 -14 -15 -15 -15 -15 -15 -15 -15 -15 -15 -15 -14 -14 -13 -13 -13 -13 -13 -13 -13 -13 -13 -13 -13 -13 -13 -13 -13 -13 -12 -12 -12 -12 -12 -12 -13 -13 -13 -13 -12 -12 -12 -12 -11 -11 -11 -10 -10 -10 -9 -9 -9 -9 -9 -9 -9 -9 -9 -9 -9 -9 -9 -9 -9 -9
-12 -13 -13 -14 -14 -15 -15 -15 -15 -15 -15 -15 -15 -15 -14 -14 -13 -13 -13 -13 -13 -13 -13 -13 -13 -13 -13 -13 -13 -12 -12 -12 -12 -12 -11 -11 -12 -12 -13 -13 -13 -12 -12 -11 -11 -11 -11 -11 -10 -10 -10 -9 -9 -9 -9 -9 -9 -9 -9 -9 -9 -9 -9 -9 -9 -9 -9 -9 -9
-12 -13 -13 -14 -15 -15 -15 -15 -15 -15 -15 -15 -15 -14 -14 -13 -13 -13 -13 -13 -13 -13 -13 -13 -12 -12 -12 -12 -12 -12 -12 -12 -11 -11 -11 -11 -12 -12 -13 -12 -12 -11 -11 -11 -11 -11 -10 -10 -10 -10 -9 -9 -9 -9 -9 -9 -9 -9 -9 -9 -9 -9 -9 -9 -9 -9 -9 -9 -9
-13 -13 -14 -14 -15 -15 -15 -15 -15 -15 -15 -14 -14 -14 -13 -13 -13 -13 -13 -13 -13 -13 -12 -12 -12 -12 -12 -12 -12 -12 -11 -11 -11 -11 -11 -11 -11 -12 -11 -11 -10 -10 -10 -10 -11 -11 -10 -10 -10 -9 -9 -9 -9 -9 -9 -9 -9 -9 -9 -9 -9 -9 -9 -9 -9 -9 -9 -9 -9
-13 -13 -14 -15 -15 -15 -15 -15 -15 -15 -14 -14 -13 -13 -13 -13 -13 -13 -13 -13 -12 -12 -12 -12 -12 -12 -12 -12 -12 -11 -11 -11 -11 -10 -10 -11 -11 -11 -10 -10 -10 -9 -10 -10 -10 -10 -10 -10 -10 -9 -9 -9 -9 -9 -9 -9 -9 -9 -9 -9 -9 -9 -9 -9 -9 -9 -9 -9 -9
-13 -14 -14 -15 -15 -15 -15 -15 -15 -14 -14 -13 -13 -13 -13 -13 -12 -12 -12 -12 -12 -12 -12 -12 -12 -12 -12 -12 -11 -11 -11 -11 -10 -10 -10 -11 -11 -10 -10 -10 -10 -9 -9 -10 -10 -10 -10 -10 -10 -10 -10 -9 -9 -9 -10 -9 -9 -9 -9 -9 -9 -9 -9 -9 -9 -9 -9 -9 -8
-13 -14 -15 -15 -15 -15 -15 -15 -14 -14 -13 -13 -13 -13 -12 -12 -12 -12 -12 -12 -12 -12 -12 -12 -12 -12 -12 -11 -11 -11 -11 -11 -10 -10 -10 -10 -10 -10 -10 -10 -10 -10 -10 -10 -10 -10 -10 -10 -10 -10 -10 -10 -10 -10 -10 -10 -9 -9 -9 -9 -9 -9 -9 -9 -9 -9 -9 -9 -9
-13 -14 -15 -15 -15 -15 -15 -15 -14 -14 -13 -13 -12 -12 -12 -12 -12 -12 -12 -12 -12 -12 -12 -12 -12 -12 -12 -11 -11 -11 -11 -11 -10 -10 -10 -10 -10 -10 -10 -10 -11 -11 -11 -11 -10 -10 -10 -10 -10 -10 -10 -10 -10 -10 -10 -10 -9 -9 -9 -9 -9 -9 -9 -9 -9 -9 -9 -9 -9
-13 -14 -15 -15 -15 -15 -15 -14 -14 -13 -13 -13 -12 -12 -12 -12 -12 -12 -12 -12 -12 -12 -12 -12 -12 -12 -12 -11 -11 -11 -11 -11 -10 -10 -10 -10 -10 -10 -10 -10 -11 -11 -11 -11 -11 -11 -11 -10 -10 -10 -10 -10 -10 -10 -10 -10 -10 -9 -9 -9 -9 -9 -9 -9 -9 -9 -9 -8 -8
-13 -14 -15 -15 -15 -15 -14 -14 -13 -13 -13 -12 -12 -12 -12 -12 -11 -11 -11 -12 -12 -12 -12 -12 -12 -12 -12 -11 -11 -11 -11 -11 -11 -10 -10 -10 -10 -10 -10 -10 -11 -11 -11 -11 -11 -11 -11 -10 -10 -10 -10 -10 -10 -10 -10 -10 -10 -9 -9 -9 -9 -9 -9 -9 -9 -9 -9 -8 -8
-13 -14 -14 -15 -15 -14 -14 -14 -13 -13 -13 -12 -12 -12 -12 -12 -11 -11 -11 -12 -12 -12 -12 -12 -12 -12 -12 -11 -11 -11 -11 -11 -11 -10 -10 -10 -10 -10 -10 -10 -11 -11 -11 -11 -11 -11 -11 -10 -10 -10 -10 -9 -9 -9 -9 -9 -9 -9 -9 -9 -9 -9 -9 -9 -9 -9 -9 -9 -9
-13 -14 -14 -15 -14 -14 -14 -13 -13 -13 -12 -12 -12 -12 -12 -11 -11 -11 -11 -12 -12 -12 -12 -12 -12 -12 -12 -12 -11 -11 -11 -11 -11 -10 -10 -10 -10 -10 -10 -10 -11 -11 -11 -11 -11 -11 -11 -11 -11 -10 -10 -10 -10 -9 -9 -9 -9 -9 -9 -9 -9 -9 -9 -9 -9 -9 -9 -9 -9
-13 -14 -14 -14 -14 -14 -14 -13 -13 -13 -12 -12 -12 -12 -12 -11 -11 -11 -12 -12 -12 -12 -12 -13 -12 -12 -12 -12 -11 -11 -11 -11 -11 -11 -10 -10 -10 -10 -10 -10 -10 -11 -11 -11 -11 -11 -11 -11 -11 -11 -11 -10 -10 -10 -10 -10 -10 -10 -10 -10 -10 -10 -10 -10 -10 -10 -10 -10 -10
-13 -14 -14 -14 -14 -14 -13 -13 -13 -13 -12 -12 -12 -12 -12 -11 -11 -12 -12 -12 -12 -12 -13 -13 -13 -12 -12 -12 -12 -11 -11 -11 -11 -11 -10 -10 -10 -10 -10 -10 -10 -11 -11 -11 -11 -11 -11 -11 -11 -11 -11 -11 -11 -11 -11 -11 -11 -11 -10 -10 -10 -10 -10 -10 -10 -10 -10 -10 -10
-13 -14 -14 -14 -14 -14 -13 -13 -13 -12 -12 -12 -12 -12 -12 -12 -12 -12 -12 -12 -12 -13 -13 -13 -13 -13 -12 -12 -12 -12 -11 -11 -11 -11 -11 -10 -10 -10 -10 -10 -10 -10 -11 -11 -11 -11 -11 -11 -11 -11 -11 -11 -11 -11 -11 -11 -11 -11 -11 -11 -11 -11 -11 -10 -10 -10 -10 -10 -10
-13 -13 -14 -14 -14 -13 -13 -13 -13 -12 -12 -12 -12 -12 -12 -12 -12 -12 -12 -12 -13 -13 -13 -13 -13 -13 -12 -12 -12 -12 -11 -11 -11 -11 -11 -10 -10 -10 -10 -10 -10 -10 -10 -11 -11 -11 -11 -11 -11 -11 -11 -11 -11 -11 -11 -11 -11 -11 -11 -11 -11 -11 -11 -11 -11 -11 -10 -10 -10
-13 -13 -14 -14 -14 -13 -13 -13 -13 -12 -12 -12 -12 -12 -12 -12 -12 -12 -12 -13 -13 -13 -13 -13 -13 -13 -13 -12 -12 -12 -12 -11 -11 -11 -11 -11 -11 -11 -10 -10 -10 -10 -10 -11 -11 -11 -11 -11 -11 -11 -11 -11 -11 -11 -11 -11 -11 -11 -11 -11 -11 -11 -11 -11 -11 -11 -11 -11 -10
-12 -13 -13 -13 -13 -13 -13 -13 -12 -12 -12 -12 -12 -12 -12 -12 -12 -12 -12 -13 -13 -13 -13 -13 -13 -13 -13 -12 -12 -12 -12 -12 -11 -11 -11 -11 -11 -11 -11 -11 -11 -10 -10 -10 -11 -11 -11 -11 -11 -11 -11 -11 -11 -11 -11 -11 -11 -11 -11 -11 -11 -11 -11 -11 -11 -11 -11 -11 -11
-12 -13 -13 -13 -13 -13 -13 -13 -12 -12 -12 -12 -12 -12 -12 -12 -12 -12 -13 -13 -13 -13 -13 -13 -13 -13 -13 -12 -12 -12 -12 -12 -11 -11 -11 -11 -11 -11 -11 -11 -11 -11 -10 -10 -10 -11 -11 -11 -11 -11 -11 -11 -12 -12 -12 -12 -12 -12 -12 -11 -11 -11 -11 -11 -11 -11 -11 -11 -11
-12 -12 -13 -13 -13 -13 -13 -12 -12 -12 -12 -12 -12 -12 -12 -12 -12 -13 -13 -13 -13 -13 -13 -13 -13 -13 -12 -12 -12 -12 -12 -12 -12 -11 -11 -11 -11 -11 -11 -11 -11 -11 -11 -11 -11 -11 -11 -11 -11 -11 -11 -11 -11 -12 -12 -12 -12 -12 -12 -12 -12 -12 -12 -12 -12 -12 -12 -12 -12
-12 -12 -12 -12 -12 -12 -12 -12 -12 -12 -12 -12 -12 -12 -12 -12 -12 -13 -13 -13 -13 -13 -13 -13 -13 -13 -13 -12 -12 -12 -12 -12 -12 -11 -11 -11 -11 -11 -11 -11 -11 -11 -11 -11 -11 -11 -11 -11 -11 -11 -11 -11 -11 -12 -12 -12 -12 -12 -12 -12 -12 -12 -12 -12 -12 -12 -12 -12 -12
-11 -12 -12 -12 -12 -12 -12 -12 -12 -12 -12 -12 -12 -12 -12 -12 -12 -13 -13 -13 -13 -13 -13 -13 -13 -13 -13 -12 -12 -12 -12 -12 -12 -12 -11 -11 -11 -11 -11 -11 -11 -11 -11 -11 -11 -11 -11 -11 -11 -11 -11 -12 -12 -12 -12 -12 -12 -12 -12 -12 -12 -12 -12 -12 -12 -12 -12 -12 -12
-11 -11 -12 -12 -12 -12 -12 -12 -12 -12 -12 -12 -12 -12 -12 -12 -12 -12 -13 -13 -13 -13 -13 -13 -13 -13 -13 -12 -12 -12 -12 -12 -12 -12 -12 -11 -11 -11 -11 -11 -11 -11 -11 -11 -11 -11 -11 -11 -11 -11 -11 -12 -12 -12 -12 -12 -12 -12 -12 -12 -12 -12 -12 -12 -12 -12 -12 -12 -12
-11 -11 -11 -12 -12 -12 -12 -12 -12 -12 -12 -12 -12 -12 -12 -12 -12 -12 -13 -13 -13 -13 -13 -13 -13 -13 -13 -12 -12 -12 -12 -12 -12 -12 -12 -11 -11 -11 -11 -11 -11 -11 -11 -12 -12 -11 -11 -11 -11 -11 -11 -12 -12 -12 -12 -12 -12 -12 -12 -12 -12 -12 -12 -12 -12 -12 -12 -12 -12
-11 -11 -11 -11 -11 -12 -12 -12 -12 -12 -12 -12 -12 -12 -12 -12 -12 -12 -12 -12 -13 -13 -13 -13 -13 -13 -13 -12 -12 -12 -12 -12 -12 -12 -12 -12 -11 -11 -11 -11 -11 -11 -11 -12 -12 -11 -11 -11 -11 -11 -11 -12 -12 -12 -12 -12 -12 -12 -12 -12 -12 -12 -12 -12 -12 -12 -12 -12 -12
Height
1530 1528 1526 1524 1522 1520 1518 1516 1515 1513 1511 1509 1507 1505 1504 1502 1501 1499 1498 1496 1495 1493 1492 1490 1489 1487 1485 1483 1482 1480 1479 1477 1476 1474 1473 1472 1470 1468 1466 1464 1463 1461 1460 1458 1457 1456 1454 1453 1452 1451 1449 1448 1447 1446 1444 1444 1442 1441 1440 1439 1439 1438 1438 1437 1436 1436 1435 1434 1434
1529 1528 1526 1524 1522 1520 1518 1516 1514 1513 1511 1509 1507 1505 1504 1502 1501 1499 1498 1496 1495 1494 1492 1490 1488 1486 1484 1483 1482 1480 1478 1477 1475 1474 1472 1470 1468 1466 1464 1463 1461 1460 1459 1457 1456 1454 1453 1452 1451 1450 1449 1447 1446 1444 1443 1442 1441 1440 1439 1438 1438 1437 1437 1436 1435 1434 1433 1433 1432
1529 1527 1525 1523 1521 1519 1517 1515 1514 1512 1510 1509 1507 1506 1504 1503 1501 1499 1498 1496 1495 1493 1491 1489 1488 1486 1484 1483 1481 1480 1478 1476 1474 1472 1470 1468 1466 1464 1463 1461 1460 1459 1457 1456 1454 1453 1452 1451 1450 1449 1447 1446 1444 1443 1442 1440 1440 1439 1438 1437 1437 1436 1435 1434 1434 1433 1432 1431 1431
1529 1527 1524 1523 1521 1519 1517 1515 1514 1512 1510 1509 1507 1505 1504 1503 1501 1499 1498 1496 1494 1493 1491 1489 1487 1486 1484 1483 1481 1479 1477 1475 1473 1471 1469 1466 1464 1463 1461 1460 1459 1457 1456 1454 1453 1452 1451 1449 1448 1447 1446 1444 1443 1441 1440 1439 1438 1438 1437 1436 1436 1435 1434 1433 1432 1432 1431 1430 1430
1528 1526 1524 1522 1520 1519 1517 1515 1514 1512 1510 1509 1507 1505 1504 1503 1501 1499 1498 1496 1494 1492 1491 1489 1488 1486 1484 1482 1480 1478 1476 1474 1472 1469 1467 1465 1463 1462 1460 1459 1457 1456 1454 1453 1452 1450 1449 1448 1447 1445 1444 1442 1441 1440 1439 1438 1437 1436 1436 1435 1434 1434 1433 1432 1431 1430 1430 1429 1429
1528 1526 1524 1522 1520 1518 1517 1515 1514 1512 1510 1509 1507 1505 1504 1502 1501 1499 1498 1496 1494 1492 1490 1489 1488 1486 1484 1481 1479 1477 1474 1472 1470 1468 1466 1464 1462 1460 1459 1457 1456 1454 1453 1451 1450 1449 1448 1446 1445 1444 1442 1441 1439 1438 1437 1437 1436 1435 1434 1434 1433 1432 1431 1431 1430 1429 1429 1429 1428
1528 1525 1524 1521 1520 1518 1517 1515 1514 1512 1510 1509 1507 1505 1504 1502 1501 1499 1498 1496 1494 1492 1490 1489 1487 1485 1483 1480 1478 1476 1473 1471 1469 1467 1465 1463 1461 1459 1458 1456 1454 1453 1451 1450 1449 1447 1446 1445 1444 1442 1441 1439 1438 1437 1436 1435 1435 1434 1433 1432 1432 1431 1430 1429 1429 1429 1428 1428 1427
1527 1525 1523 1521 1520 1518 1517 1515 1513 1511 1510 1508 1507 1505 1504 1502 1501 1499 1497 1495 1494 1492 1491 1489 1487 1484 1482 1479 1477 1475 1472 1470 1468 1466 1464 1462 1460 1458 1456 1454 1453 1451 1450 1449 1447 1446 1444 1443 1442 1440 1439 1438 1436 1435 1434 1434 1434 1433 1432 1431 1430 1429 1429 1429 1428 1428 1428 1427 1426
1527 1525 1523 1521 1519 1518 1516 1515 1513 1511 1510 1508 1507 1505 1504 1502 1500 1499 1497 1495 1494 1492 1490 1488 1486 1484 1481 1479 1476 1474 1472 1469 1467 1465 1463 1461 1459 1457 1455 1453 1452 1450 1448 1447 1445 1444 1443 1441 1440 1439 1437 1436 1435 1434 1433 1433 1432 1431 1430 1429 1429 1428 1428 1428 1428 1427 1427 1426 1425
1526 1524 1522 1521 1519 1518 1516 1514 1513 1511 1510 1508 1507 1505 1504 1502 1500 1499 1497 1496 1494 1492 1490 1488 1485 1483 1480 1478 1476 1473 1471 1469 1467 1464 1462 1460 1459 1456 1454 1452 1450 1448 1447 1445 1444 1442 1441 1439 1438 1437 1436 1435 1434 1433 1432 1432 1431 1430 1429 1428 1428 1427 1427 1427 1427 1427 1426 1425 1425
1526 1524 1522 1521 1519 1517 1516 1514 1512 1511 1510 1508 1507 1505 1503 1502 1500 1499 1497 1496 1494 1492 1490 1488 1485 1483 1480 1478 1475 1473 1470 1468 1466 1464 1462 1459 1457 1455 1453 1450 1449 1447 1445 1443 1442 1440 1439 1437 1436 1435 1434 1434 1433 1432 1431 1430 1429 1429 1428 1427 1427 1426 1426 1427 1427 1426 1426 1425 1424
1525 1524 1522 1521 1519 1517 1515 1514 1512 1511 1509 1508 1506 1505 1503 1501 1500 1499 1497 1496 1494 1492 1489 1487 1484 1482 1479 1477 1474 1472 1470 1468 1465 1463 1461 1458 1455 1453 1451 1449 1447 1445 1443 1441 1440 1439 1437 1436 1434 1433 1433 1432 1431 1430 1429 1429 1428 1427 1427 1426 1426 1426 1426 1426 1426 1426 1425 1425 1424
1525 1524 1522 1521 1519 1517 1516 1514 1513 1511 1509 1508 1506 1505 1503 1502 1500 1499 1497 1495 1494 1491 1489 1487 1484 1482 1479 1477 1474 1472 1469 1467 1465 1462 1459 1457 1454 1451 1449 1447 1445 1443 1441 1439 1438 1437 1435 1434 1433 1432 1431 1430 1429 1429 1428 1427 1427 1426 1426 1426 1426 1426 1426 1426 1426 1425 1425 1425 1424
1526 1524 1523 1521 1519 1517 1516 1514 1513 1511 1509 1508 1507 1505 1503 1502 1500 1499 1497 1495 1493 1491 1489 1486 1484 1482 1479 1477 1474 1472 1469 1467 1464 1461 1458 1455 1453 1450 1448 1445 1443 1441 1439 1438 1437 1435 1434 1433 1431 1430 1429 1428 1427 1427 1426 1426 1426 1425 1425 1425 1426 1426 1426 1426 1426 1426 1425 1425 1425
1526 1524 1523 1521 1519 1518 1516 1514 1513 1511 1510 1508 1507 1505 1504 1502 1500 1499 1497 1495 1493 1491 1489 1486 1484 1481 1479 1476 1474 1471 1469 1466 1463 1460 1457 1454 1451 1449 1447 1444 1442 1440 1438 1436 1434 1433 1432 1430 1429 1428 1427 1426 1426 1425 1425 1425 1425 1425 1425 1425 1426 1426 1426 1426 1426 1426 1426 1425 1424
1526 1524 1523 1521 1519 1518 1516 1515 1513 1511 1510 1508 1506 1505 1504 1502 1501 1499 1497 1495 1493 1491 1489 1486 1484 1481 1479 1476 1474 1471 1468 1465 1462 1459 1456 1453 1450 1448 1445 1443 1440 1438 1435 1433 1431 1430 1429 1428 1427 1427 1426 1426 1425 1425 1425 1425 1425 1425 1425 1425 1426 1426 1426 1426 1426 1426 1426 1425 1424
1526 1524 1523 1521 1519 1518 1516 1515 1513 1512 1510 1508 1506 1505 1504 1502 1501 1499 1498 1495 1493 1491 1488 1486 1484 1481 1479 1476 1474 1471 1468 1464 1461 1459 1455 1452 1449 1446 1443 1441 1438 1435 1433 1431 1429 1428 1427 1426 1426 1426 1426 1426 1426 1425 1425 1425 1425 1425 1426 1426 1426 1426 1427 1427 1427 1426 1426 1425 1425
1526 1525 1523 1521 1519 1518 1517 1515 1513 1511 1509 1508 1506 1505 1504 1503 1501 1499 1498 1496 1493 1491 1488 1486 1484 1481 1479 1476 1473 1470 1468 1464 1462 1459 1455 1451 1447 1444 1441 1439 1437 1434 1432 1430 1429 1428 1427 1426 1426 1426 1426 1426 1426 1426 1426 1426 1426 1426 1426 1426 1427 1427 1427 1427 1427 1427 1426 1426 1426
1526 1524 1523 1521 1519 1518 1517 1515 1513 1511 1509 1508 1507 1505 1504 1503 1501 1500 1498 1495 1493 1491 1488 1486 1484 1481 1479 1476 1474 1471 1468 1465 1462 1459 1456 1451 1447 1444 1441 1439 1437 1435 1434 1432 1430 1429 1428 1427 1427 1427 1427 1427 1427 1427 1427 1426 1426 1426 1427 1427 1428 1428 1428 1428 1427 1427 1426 1426 1425
1526 1524 1523 1521 1519 1518 1517 1515 1513 1511 1509 1508 1507 1506 1504 1503 1501 1500 1498 1495 1493 1491 1489 1486 1484 1481 1479 1477 1474 1471 1469 1466 1463 1460 1457 1453 1448 1445 1443 1441 1439 1438 1437 1435 1433 1432 1430 1429 1429 1428 1428 1428 1428 1428 1428 1428 1428 1428 1428 1428 1428 1428 1428 1428 1427 1427 1426 1425 1425
1526 1524 1523 1521 1520 1519 1517 1515 1513 1511 1510 1509 1507 1506 1504 1503 1501 1500 1498 1496 1494 1491 1489 1487 1484 1482 1479 1477 1474 1472 1470 1467 1465 1462 1458 1454 1451 1448 1446 1444 1442 1441 1440 1439 1437 1434 1433 1431 1430 1429 1429 1429 1429 1428 1428 1428 1428 1428 1428 1428 1428 1428 1428 1428 1427 1427 1426 1425 1424
1526 1524 1523 1521 1520 1519 1517 1515 1513 1512 1510 1509 1507 1506 1504 1503 1502 1500 1498 1496 1494 1492 1489 1487 1485 1483 1480 1478 1475 1473 1471 1469 1466 1464 1460 1457 1454 1451 1449 1447 1445 1444 1443 1442 1440 1438 1435 1433 1432 1431 1430 1430 1430 1429 1429 1429 1429 1429 1429 1429 1429 1429 1429 1428 1428 1427 1426 1425 1424
1526 1524 1523 1522 1520 1519 1517 1515 1514 1512 1510 1509 1508 1506 1505 1503 1502 1500 1498 1496 1494 1492 1489 1487 1485 1483 1481 1479 1477 1474 1472 1470 1467 1465 1462 1459 1456 1454 1452 1450 1448 1447 1446 1445 1443 1440 1438 1437 1435 1434 1433 1432 1431 1431 1431 1430 1430 1430 1430 1430 1430 1429 1429 1429 1428 1427 1426 1425 1424
1526 1524 1523 1522 1520 1519 1517 1515 1514 1512 1511 1509 1508 1506 1505 1503 1502 1500 1498 1496 1494 1492 1490 1488 1485 1484 1481 1479 1478 1476 1474 1471 1468 1466 1463 1461 1458 1455 1454 1452 1450 1449 1449 1447 1445 1443 1441 1439 1438 1437 1435 1434 1434 1433 1432 1431 1431 1431 1431 1431 1430 1430 1429 1429 1428 1427 1426 1425 1424
1526 1525 1523 1522 1520 1519 1517 1515 1514 1513 1511 1509 1508 1507 1505 1504 1502 1500 1498 1496 1494 1492 1490 1488 1486 1484 1482 1480 1479 1477 1474 1472 1470 1467 1465 1462 1459 1457 1455 1454 1453 1452 1451 1449 1447 1445 1444 1442 1440 1439 1438 1437 1436 1434 1434 1433 1433 1432 1432 1432 1431 1431 1430 1429 1429 1428 1427 1426 1425
1526 1525 1523 1522 1520 1519 1517 1516 1514 1513 1511 1510 1509 1507 1505 1504 1502 1500 1499 1497 1494 1492 1490 1488 1486 1484 1482 1481 1479 1477 1475 1473 1471 1469 1466 1464 1461 1459 1457 1456 1455 1454 1454 1451 1449 1447 1445 1444 1442 1441 1439 1438 1437 1436 1435 1434 1434 1434 1434 1433 1432 1431 1430 1429 1429 1428 1427 1426 1425
1526 1525 1524 1522 1521 1519 1518 1516 1515 1513 1512 1510 1509 1507 1505 1504 1502 1500 1499 1497 1495 1493 1490 1488 1486 1484 1483 1481 1480 1478 1476 1474 1473 1470 1468 1466 1463 1461 1459 1458 1457 1457 1455 1453 1450 1448 1447 1445 1444 1442 1441 1440 1439 1438 1437 1437 1436 1435 1435 1434 1433 1432 1431 1430 1429 1428 1427 1426 1426
1526 1525 1524 1522 1521 1519 1518 1516 1515 1514 1512 1510 1509 1507 1506 1504 1502 1501 1499 1497 1495 1493 1490 1489 1487 1485 1484 1482 1480 1479 1477 1475 1474 1472 1470 1468 1465 1463 1461 1460 1459 1459 1457 1454 1452 1450 1449 1447 1445 1444 1443 1441 1440 1440 1439 1439 1438 1437 1436 1435 1434 1433 1432 1431 1430 1429 1428 1427 1426
1527 1525 1524 1522 1521 1519 1518 1516 1515 1514 1512 1511 1509 1508 1506 1504 1503 1501 1499 1497 1495 1493 1490 1489 1487 1486 1484 1483 1481 1479 1478 1476 1475 1473 1471 1469 1467 1465 1463 1461 1461 1460 1459 1456 1454 1452 1450 1449 1447 1446 1444 1443 1442 1441 1440 1439 1439 1438 1437 1436 1435 1434 1433 1432 1431 1429 1428 1427 1426
1527 1525 1524 1523 1521 1519 1518 1517 1515 1514 1513 1511 1509 1508 1506 1504 1503 1501 1499 1497 1495 1493 1492 1490 1488 1486 1485 1484 1482 1480 1479 1477 1476 1474 1472 1470 1469 1466 1464 1463 1462 1461 1460 1457 1455 1454 1452 1451 1449 1448 1446 1445 1443 1442 1441 1440 1439 1438 1437 1436 1435 1434 1434 1433 1431 1430 1429 1428 1426
1527 1525 1524 1523 1521 1519 1518 1517 1515 1514 1513 1511 1509 1508 1506 1504 1503 1501 1499 1498 1496 1494 1492 1490 1489 1487 1486 1484 1483 1481 1479 1478 1477 1475 1473 1472 1470 1468 1466 1464 1463 1463 1462 1458 1456 1455 1454 1452 1451 1450 1448 1447 1445 1444 1442 1441 1440 1439 1438 1437 1436 1435 1434 1433 1432 1430 1429 1428 1427
1527 1526 1524 1523 1521 1520 1518 1517 1515 1514 1513 1511 1510 1508 1507 1505 1503 1502 1500 1498 1496 1494 1492 1490 1489 1487 1486 1484 1483 1482 1480 1479 1477 1476 1474 1473 1471 1469 1467 1465 1463 1464 1463 1459 1457 1456 1454 1454 1452 1451 1450 1449 1447 1445 1444 1443 1441 1440 1439 1438 1436 1435 1434 1433 1432 1431 1429 1428 1427
1527 1526 1524 1523 1521 1520 1518 1517 1515 1514 1513 1511 1510 1509 1507 1505 1504 1502 1500 1498 1496 1494 1492 1491 1489 1488 1486 1485 1484 1482 1481 1479 1478 1477 1475 1474 1472 1471 1469 1467 1464 1464 1464 1462 1459 1457 1455 1454 1453 1452 1451 1450 1449 1447 1445 1444 1443 1441 1440 1439 1437 1436 1434 1433 1432 1431 1430 1429 1428
1527 1526 1524 1523 1521 1520 1518 1517 1515 1514 1513 1511 1510 1509 1507 1506 1504 1502 1500 1498 1497 1495 1493 1491 1490 1489 1487 1486 1484 1483 1481 1480 1479 1477 1476 1474 1473 1471 1470 1468 1466 1464 1464 1464 1460 1458 1457 1455 1454 1453 1451 1450 1449 1447 1446 1445 1444 1442 1441 1439 1438 1436 1435 1434 1432 1431 1430 1429 1428
1528 1526 1525 1523 1522 1520 1519 1517 1515 1514 1513 1511 1510 1509 1508 1506 1504 1502 1500 1499 1497 1495 1494 1492 1491 1489 1488 1487 1485 1484 1482 1481 1479 1478 1476 1475 1474 1472 1471 1469 1467 1465 1464 1464 1461 1459 1457 1456 1455 1454 1452 1450 1449 1447 1446 1445 1444 1442 1441 1440 1438 1437 1435 1434 1433 1431 1430 1429 1428
1528 1527 1525 1523 1522 1520 1519 1517 1515 1514 1513 1511 1510 1509 1508 1506 1504 1503 1501 1499 1498 1496 1494 1492 1491 1489 1488 1487 1485 1484 1483 1481 1480 1479 1477 1475 1474 1472 1471 1470 1468 1466 1465 1464 1462 1460 1458 1456 1455 1454 1453 1451 1450 1448 1447 1445 1444 1443 1441 1440 1439 1437 1436 1434 1433 1432 1430 1429 1428
1529 1527 1525 1524 1522 1520 1519 1517 1515 1514 1513 1511 1510 1509 1508 1506 1505 1503 1501 1499 1498 1496 1494 1493 1491 1490 1489 1487 1486 1485 1484 1482 1481 1479 1478 1476 1474 1473 1472 1470 1469 1467 1465 1464 1463 1461 1459 1457 1456 1454 1454 1452 1450 1449 1448 1446 1445 1443 1442 1440 1439 1438 1436 1435 1433 1432 1430 1429 1428
1529 1527 1526 1524 1522 1521 1519 1517 1516 1514 1513 1512 1510 1509 1508 1507 1505 1504 1502 1500 1498 1497 1495 1493 1492 1490 1489 1488 1487 1486 1485 1483 1482 1480 1478 1477 1475 1474 1472 1471 1469 1468 1466 1465 1464 1462 1460 1459 1457 1455 1454 1453 1451 1450 1449 1447 1445 1444 1442 1441 1439 1438 1436 1435 1434 1432 1430 1429 1428
1529 1528 1526 1524 1523 1521 1519 1518 1516 1514 1513 1512 1510 1509 1508 1507 1505 1504 1502 1501 1499 1498 1496 1494 1493 1491 1490 1489 1488 1487 1485 1484 1483 1481 1479 1478 1476 1475 1474 1472 1470 1469 1467 1466 1465 1464 1462 1461 1459 1456 1454 1453 1452 1451 1449 1448 1446 1444 1443 1441 1439 1438 1437 1435 1434 1432 1430 1429 1428
1530 1528 1527 1525 1523 1521 1519 1518 1516 1514 1513 1512 1511 1509 1508 1507 1506 1504 1503 1501 1500 1498 1497 1495 1494 1492 1491 1490 1489 1487 1486 1484 1483 1482 1480 1479 1477 1476 1474 1473 1471 1470 1468 1467 1466 1466 1464 1462 1460 1458 1455 1454 1453 1451 1450 1449 1447 1445 1443 1441 1440 1438 1437 1435 1434 1432 1430 1429 1427
1530 1529 1527 1525 1524 1522 1520 1518 1516 1515 1513 1512 1511 1509 1508 1507 1506 1505 1503 1502 1500 1499 1497 1495 1494 1493 1492 1490 1489 1488 1486 1485 1484 1482 1481 1479 1478 1477 1475 1474 1472 1470 1469 1468 1467 1467 1465 1464 1462 1460 1457 1455 1453 1452 1450 1449 1447 1445 1444 1442 1440 1439 1437 1435 1433 1432 1430 1428 1427
Wind_Speed
36 35 34 32 31 30 30 29 28 28 27 27 27 27 27 27 27 27 27 27 27 28 28 28 28 29 30 31 31 31 32 32 33 33 31 29 28 28 29 31 33 32 31 30 28 28 27 27 27 27 27 27 27 27 27 26 25 23 21 20 19 19 20 21 22 22 21 20 19
34 33 31 30 29 28 28 27 27 27 27 27 26 26 26 26 26 26 26 27 27 28 28 29 29 30 31 31 31 31 32 32 33 32 31 30 30 31 32 32 31 30 29 29 28 28 27 27 27 27 26 26 26 27 27 26 24 22 21 20 20 21 22 23 23 22 20 19 18
32 31 30 28 27 27 27 27 27 27 27 27 26 26 26 25 26 26 27 27 28 28 29 29 30 30 31 31 31 31 32 32 31 31 31 32 32 32 31 30 29 29 29 29 28 28 28 27 27 26 25 25 26 27 27 26 23 22 21 21 21 22 23 23 22 20 19 18 16
30 29 28 27 27 27 27 27 27 27 27 27 27 26 26 26 26 27 28 28 29 29 29 30 30 30 30 30 31 32 32 31 31 31 31 31 31 30 30 29 29 29 29 28 28 28 27 27 27 27 26 26 27 27 27 25 23 21 21 22 22 23 23 23 21 19 17 16 15
28 27 27 27 27 27 27 26 27 27 27 27 27 26 26 26 27 27 28 29 29 29 30 30 30 29 29 30 31 32 32 31 30 30 30 31 31 30 30 29 29 29 29 28 28 27 27 28 28 27 28 28 27 26 26 24 23 22 22 22 23 23 23 21 19 17 15 15 14
27 27 27 27 27 27 26 26 26 26 26 26 27 27 27 27 27 28 29 29 29 29 29 29 29 29 30 31 32 32 32 32 31 30 30 31 31 31 31 30 29 29 28 28 27 27 27 27 27 27 27 27 27 26 25 23 23 22 23 23 23 23 21 19 16 14 13 13 12
27 28 28 28 27 26 25 25 25 25 26 26 27 27 27 27 27 28 29 29 29 29 29 29 29 30 31 32 32 32 32 32 31 31 31 31 31 31 31 30 30 29 29 28 28 28 28 27 27 27 27 26 26 25 24 23 23 23 23 23 23 21 18 15 13 12 12 11 11
28 28 28 27 26 25 25 25 25 26 26 26 27 27 27 27 27 27 28 29 29 29 29 29 30 31 31 32 32 32 32 32 32 32 32 32 32 32 32 31 31 30 30 29 29 28 28 28 27 27 27 27 26 26 24 23 22 22 23 23 22 18 14 11 10 10 10 10 10
29 28 28 27 26 25 25 25 26 26 27 27 27 27 26 26 26 27 28 28 28 28 29 30 31 31 32 32 32 32 32 33 33 33 33 33 33 33 33 32 32 32 31 31 30 29 29 28 28 27 27 26 26 25 23 22 21 22 23 22 19 13 9 8 8 8 8 9 10
29 28 27 26 26 25 26 27 27 27 27 27 27 27 27 26 27 27 28 28 28 29 30 30 31 32 32 32 33 33 34 34 34 35 35 34 34 34 34 34 33 33 33 32 31 30 29 28 28 27 26 25 25 24 22 21 22 22 22 19 14 9 6 6 5 6 7 10 13
28 28 27 26 26 27 27 28 28 28 27 28 28 28 28 28 28 28 28 28 29 30 30 31 31 32 33 34 34 35 35 36 36 36 36 36 35 35 36 36 35 35 34 33 31 30 29 28 27 26 26 25 24 23 22 22 23 22 19 13 8 6 4 3 3 5 9 13 16
28 27 26 26 27 28 29 29 29 28 28 28 29 29 29 29 29 29 29 29 29 30 31 32 32 33 34 35 36 36 36 37 37 37 37 36 36 37 37 37 36 35 34 33 31 29 28 28 27 26 26 25 24 24 24 24 22 19 13 7 3 2 2 3 5 8 12 15 17
27 26 26 26 27 28 29 29 29 29 28 29 29 30 30 29 29 29 29 29 29 30 31 32 33 34 35 35 36 36 37 37 37 37 37 37 37 38 37 37 36 35 34 32 30 29 29 29 28 27 26 26 25 24 24 22 19 13 7 3 2 2 3 6 9 12 14 15 15
26 26 26 27 28 29 30 30 30 29 29 29 29 30 29 28 28 28 29 29 30 31 32 33 34 34 35 35 35 35 36 36 36 37 37 37 37 37 37 36 35 34 33 32 31 31 30 29 28 26 25 24 23 22 20 17 12 7 3 3 4 4 6 10 13 14 13 13 13
26 26 26 27 28 29 30 30 30 29 29 29 29 29 28 27 28 28 29 29 30 32 33 33 34 34 34 34 34 35 35 36 36 37 37 37 37 36 36 36 35 35 35 34 33 32 30 28 25 22 20 19 18 15 12 9 6 4 4 4 5 7 11 13 13 12 11 12 14
26 26 26 27 28 29 30 30 30 29 29 28 28 27 27 27 28 28 29 30 31 32 33 33 33 33 33 33 33 34 35 36 37 37 38 38 38 38 38 38 38 38 38 37 35 31 27 23 19 16 13 11 10 7 6 6 5 5 5 6 8 11 13 13 11 10 11 13 14
26 26 27 27 28 29 30 30 30 29 28 27 27 26 26 27 28 28 29 31 32 33 33 33 32 32 32 33 33 34 36 37 38 38 39 40 42 42 43 43 43 43 41 37 33 29 25 20 14 9 6 5 5 6 8 8 8 8 8 10 13 14 13 11 10 10 11 12 12
26 27 27 28 29 30 30 30 29 28 27 26 25 25 26 27 28 29 29 30 31 33 33 33 32 32 32 33 34 35 37 38 38 39 41 44 47 47 47 46 45 43 38 34 30 28 24 20 15 11 8 8 9 10 11 13 13 14 14 15 15 14 11 9 8 7 6 6 6
27 28 28 29 29 30 30 29 29 27 26 24 24 25 26 27 28 28 29 30 31 33 33 33 33 32 32 33 35 36 37 38 39 40 43 47 50 51 49 47 44 39 34 32 30 28 25 22 18 16 14 13 13 14 16 18 19 19 19 17 15 11 8 6 5 3 1 2 3
28 29 29 29 29 29 29 28 27 26 24 23 24 25 26 27 27 28 29 31 32 33 33 33 32 32 32 34 35 37 37 38 38 40 43 48 50 51 49 46 41 37 34 32 30 27 25 22 20 18 16 15 15 17 19 20 20 19 17 15 11 8 6 4 3 1 0 2 3
28 29 29 29 29 29 28 27 26 24 23 23 24 25 26 26 27 28 29 30 32 32 32 32 32 32 32 34 35 36 37 37 38 40 43 47 48 48 46 43 40 37 34 32 29 25 23 21 20 18 17 16 17 18 20 19 18 16 14 12 9 7 5 3 2 2 3 4 6
28 29 29 28 28 27 27 26 24 23 23 23 24 25 26 26 27 28 29 30 31 32 32 31 31 31 32 33 34 35 36 37 37 39 42 45 45 44 42 41 40 38 36 33 30 26 23 21 21 19 18 18 18 19 19 19 18 16 14 12 10 9 8 7 7 7 8 9 11
28 28 28 27 27 26 25 24 23 22 23 23 24 24 25 26 26 27 28 30 31 31 31 31 30 31 32 32 33 34 35 36 37 38 40 43 44 42 39 38 38 38 36 33 31 28 26 25 24 23 22 21 21 21 21 20 19 17 16 15 14 13 13 12 13 13 13 14 16
28 28 27 26 26 25 24 23 23 23 23 23 24 24 25 25 26 27 28 30 31 31 31 30 30 30 31 31 32 33 34 36 37 38 39 41 43 42 39 37 37 36 35 32 30 28 27 26 26 25 25 24 24 23 22 21 19 18 17 17 16 15 15 15 15 15 16 16 17
28 27 26 25 25 24 24 23 23 23 23 23 23 23 24 25 25 26 28 29 30 31 30 30 30 30 30 31 31 32 33 35 36 37 38 40 42 42 39 36 36 34 33 31 30 28 26 25 25 25 25 24 24 24 23 22 20 19 18 17 16 16 16 16 16 16 16 16 16
27 27 26 25 24 24 23 23 22 22 22 22 22 23 24 24 25 26 27 29 30 30 30 29 29 29 30 30 30 31 32 34 35 36 37 38 40 41 39 36 35 33 32 32 31 29 27 25 24 23 23 23 23 23 22 22 20 19 18 18 17 17 17 17 17 17 17 17 16
27 26 25 24 24 23 23 22 21 21 21 22 22 23 24 24 25 25 27 28 29 30 30 29 29 29 29 29 29 30 31 32 34 35 35 36 38 39 39 36 34 32 32 33 33 31 29 26 25 23 22 21 21 20 20 19 18 18 18 18 18 17 17 17 18 18 18 18 18
27 26 25 24 23 23 22 21 21 20 21 21 22 23 24 24 25 25 26 27 29 30 30 29 28 28 28 28 28 28 29 30 32 33 34 34 35 37 37 35 33 31 31 33 34 33 31 29 27 25 23 21 19 17 16 15 14 15 16 16 15 15 15 15 16 17 17 18 19
26 26 25 24 23 22 21 21 20 20 20 21 22 23 24 25 25 25 26 27 28 29 29 28 27 27 27 26 27 27 27 29 30 31 32 32 33 34 35 35 32 30 30 33 34 34 33 31 29 27 25 23 21 19 17 15 13 13 13 12 12 11 12 12 13 14 16 18 20
26 25 25 24 23 22 21 20 19 19 19 21 22 23 24 25 26 25 26 26 27 28 28 27 26 25 25 25 25 25 26 27 28 30 31 31 31 32 34 34 32 29 29 31 34 35 34 33 31 29 28 26 24 23 21 19 17 15 13 11 10 9 10 11 12 13 15 17 20
26 25 25 24 23 21 20 19 19 18 19 20 22 23 25 26 26 25 26 26 27 27 26 25 24 24 24 24 24 24 25 26 27 28 29 30 30 30 32 33 33 30 28 29 31 34 35 35 34 32 30 28 27 25 24 23 21 19 16 14 12 11 10 11 12 12 13 14 18
26 25 25 24 23 21 20 19 18 18 19 20 22 23 25 25 25 25 25 26 26 26 26 25 24 24 24 23 23 23 24 25 26 27 28 28 28 28 30 32 32 31 28 27 28 31 34 36 36 35 34 32 30 28 26 25 23 22 20 17 15 13 12 12 12 12 13 13 14
26 26 25 24 23 21 19 18 18 18 18 20 21 23 24 24 24 24 25 26 26 26 25 25 24 24 23 23 22 22 23 23 24 25 26 27 27 27 27 29 31 31 29 27 26 28 31 34 36 37 36 35 34 32 30 28 26 24 22 20 18 16 14 14 13 13 13 13 12
27 26 26 25 23 21 19 18 17 18 18 20 21 22 23 23 23 24 25 26 26 26 25 24 23 23 22 21 21 21 22 22 23 24 26 26 26 25 25 26 29 31 31 29 27 27 29 32 34 36 37 37 37 36 35 33 31 28 26 24 21 18 16 15 14 14 14 14 12
27 27 26 26 24 22 20 18 17 17 18 19 21 22 22 22 23 23 24 25 25 25 25 24 23 22 21 20 20 21 21 22 23 24 25 26 26 25 24 24 27 30 33 32 29 27 27 30 33 34 35 36 37 37 37 36 34 33 30 28 25 23 21 19 17 16 16 15 13
27 27 27 26 25 23 21 19 18 17 18 19 20 21 21 21 22 22 23 24 25 25 25 24 23 22 20 19 19 20 21 22 23 24 25 26 26 25 24 23 24 27 31 33 32 29 27 28 31 33 34 35 36 37 37 37 36 35 33 32 30 28 25 23 21 20 19 17 14
26 27 27 27 26 25 23 20 19 18 18 19 19 20 20 20 21 21 23 24 25 25 25 24 23 22 20 19 19 19 20 22 23 24 25 25 26 25 24 23 23 25 28 31 32 31 30 28 30 32 33 34 35 36 36 36 36 35 35 34 33 31 29 27 25 23 22 21 18
26 26 27 27 27 26 24 22 20 19 18 18 18 19 19 19 20 20 22 23 24 24 24 23 22 21 19 18 18 18 19 21 23 24 24 25 25 25 24 23 23 24 26 28 30 31 31 29 29 31 33 33 34 35 35 36 36 35 35 34 33 32 31 29 28 26 25 23 22
25 26 26 27 27 26 26 24 22 20 18 17 17 17 18 18 18 19 20 21 22 23 23 22 21 20 18 17 17 17 18 20 22 23 24 24 25 24 24 23 23 23 24 25 28 29 30 30 29 30 32 33 33 34 34 35 35 35 35 34 34 33 32 31 30 29 27 26 24
24 25 25 26 26 26 26 25 24 21 19 17 16 16 17 17 17 18 18 19 20 21 21 20 19 18 17 17 16 17 18 20 21 22 22 23 23 23 23 23 23 23 23 24 25 27 28 29 29 29 30 31 32 33 33 34 35 35 35 35 34 33 33 32 31 30 29 28 26
23 24 24 25 26 26 26 26 25 23 20 18 16 16 15 15 15 16 17 18 19 19 19 19 18 17 16 16 16 17 18 20 21 21 21 21 22 22 22 22 22 22 22 23 24 24 26 27 28 28 28 30 31 32 33 33 34 35 35 34 34 34 33 33 32 32 31 30 29
Wind_Direction
336 337 337 337 337 337 337 339 340 341 342 342 343 344 344 344 342 341 340 340 338 336 334 333 333 333 334 336 335 334 332 332 332 331 329 326 322 317 314 314 316 320 322 324 324 323 323 324 322 318 314 312 312 312 313 313 313 312 313 315 317 319 319 316 313 312 312 312 312
338 339 339 338 338 339 341 343 345 346 346 346 347 348 347 346 343 341 340 339 338 337 335 334 334 334 335 335 334 332 330 330 330 328 325 321 316 313 313 316 320 324 324 324 323 323 323 323 321 317 313 310 309 309 310 312 313 313 315 317 318 318 316 314 314 315 315 314 313
341 341 341 341 342 344 347 349 349 349 349 350 351 351 350 347 344 342 341 340 339 338 337 335 335 335 335 334 332 331 330 329 328 325 322 318 316 317 319 323 325 325 324 323 323 322 322 322 320 316 312 308 307 307 309 311 313 314 315 317 316 315 314 314 316 316 315 313 311
343 343 344 345 347 349 351 351 351 350 350 352 353 353 350 348 346 344 342 341 340 339 339 338 336 335 334 332 331 331 331 330 327 325 323 323 324 325 326 326 326 325 324 324 323 322 321 321 319 316 311 308 307 307 309 311 314 315 315 316 316 316 316 317 317 316 314 311 308
345 346 347 348 350 351 351 351 351 351 352 353 353 352 350 349 347 345 342 341 341 341 341 340 337 335 333 333 333 333 333 332 329 329 329 329 329 328 327 326 325 324 324 325 324 322 321 320 318 315 312 311 309 309 310 313 315 316 317 317 317 317 318 318 317 315 312 309 305
347 348 349 350 351 351 351 351 351 352 354 355 353 352 350 349 347 345 343 343 343 343 342 339 336 335 335 336 336 336 335 334 334 333 332 330 330 328 327 326 325 325 325 325 325 323 322 320 317 314 312 312 311 311 313 317 318 319 319 318 318 319 320 318 316 312 309 306 304
349 350 350 351 351 351 351 351 353 356 356 356 353 351 350 349 346 345 345 346 345 343 341 338 337 337 338 339 339 338 337 336 335 334 333 331 330 329 327 327 327 327 327 327 326 324 322 319 315 312 311 311 311 313 316 318 319 319 318 319 320 322 321 317 312 308 305 303 306
351 351 352 352 352 352 353 354 357 359 358 356 353 351 350 348 346 346 348 348 346 344 341 340 340 340 341 341 340 339 339 337 336 334 333 332 331 331 330 329 329 328 328 327 325 323 321 318 315 313 313 313 313 315 317 318 319 318 319 320 323 324 321 311 304 300 301 305 313
353 354 354 355 355 356 357 0 3 2 359 356 354 352 350 349 348 350 351 349 346 344 342 342 342 343 343 343 342 341 340 337 336 334 333 332 332 331 330 330 329 328 327 327 325 323 320 319 317 316 317 317 317 317 317 318 318 319 321 323 326 324 312 298 293 296 303 314 323
356 356 357 358 359 1 3 5 6 4 1 357 355 354 353 352 353 354 353 350 347 346 345 345 345 345 345 343 342 340 339 337 336 335 334 333 332 332 331 330 329 328 327 327 326 324 323 322 321 320 321 321 319 318 317 318 319 320 323 327 326 315 294 286 291 304 318 329 340
359 359 360 1 2 5 7 7 6 4 1 358 356 356 356 356 357 356 354 352 350 349 349 349 347 346 344 343 341 340 339 338 338 337 335 334 334 333 332 331 330 329 328 328 328 327 325 324 324 325 324 322 320 317 316 317 320 324 328 331 321 305 296 299 319 335 345 354 3
1 1 2 3 5 7 8 6 4 2 360 357 356 356 356 357 358 357 355 354 353 352 352 351 348 346 345 344 342 342 341 341 340 338 337 336 335 335 334 332 331 331 331 332 332 330 329 328 327 326 324 322 319 317 317 319 324 329 334 336 328 331 350 5 6 9 15 20 22
2 2 3 5 7 8 7 5 3 0 358 356 355 355 355 356 357 358 358 357 356 354 353 352 350 349 347 346 345 345 344 343 342 341 339 338 338 337 336 335 334 335 335 335 335 333 331 329 328 325 322 320 318 317 319 323 329 336 346 14 61 56 33 24 28 33 36 35 31
3 4 5 6 8 8 7 4 1 358 356 354 354 353 354 357 359 359 359 359 358 356 355 354 353 352 350 349 348 347 346 346 345 344 342 341 340 340 339 338 338 338 338 336 335 332 330 328 326 323 319 316 316 318 323 330 339 353 29 76 79 57 41 40 45 46 43 38 35
4 5 6 7 9 9 7 3 359 356 354 353 353 353 355 359 2 2 1 0 359 358 357 356 355 353 352 350 349 348 348 348 348 347 345 343 343 343 343 342 342 340 338 336 335 333 332 330 328 325 319 315 317 324 336 351 11 51 86 85 62 50 52 57 55 50 46 45 43
4 6 7 9 9 8 6 2 358 354 352 352 353 355 359 4 6 5 3 1 360 359 358 357 356 354 352 351 351 351 351 352 352 351 349 347 347 347 346 345 343 341 340 339 340 341 342 341 339 334 326 322 331 353 24 42 63 84 88 71 57 59 64 67 62 58 57 55 48
5 6 8 9 10 8 5 1 357 354 352 353 354 358 4 9 8 7 4 3 1 359 358 358 356 355 354 354 354 355 356 357 356 354 352 351 350 349 347 345 344 343 345 347 350 355 -0 4 6 4 0 8 32 53 61 60 66 73 72 64 63 69 74 73 70 67 63 55 45
6 7 9 10 10 7 3 360 356 354 354 355 359 4 10 11 9 7 5 3 1 360 359 358 357 356 356 357 359 1 2 1 359 358 356 356 354 352 349 348 349 352 357 4 10 15 21 29 40 54 66 71 68 64 60 58 62 65 66 65 70 76 81 80 78 70 57 40 32
7 8 10 10 9 6 2 359 356 356 357 360 5 10 12 12 9 6 5 3 2 0 359 358 358 358 360 2 4 6 6 5 3 2 2 1 0 359 358 358 2 9 19 28 32 34 38 46 57 69 77 77 71 65 63 64 66 67 69 73 79 87 94 97 96 90 53 337 345
8 10 10 10 8 4 1 359 357 358 1 6 10 12 12 10 8 6 5 3 2 1 359 359 359 1 4 7 9 9 9 8 6 6 6 7 8 9 10 12 18 28 37 41 42 45 51 58 67 75 80 80 77 75 74 75 75 77 81 88 98 110 122 130 135 136 296 310 322
10 10 10 9 7 4 1 359 360 3 7 11 13 12 10 8 7 6 5 3 2 1 1 1 2 4 7 10 11 11 11 10 10 9 9 11 14 18 22 26 30 37 41 40 41 47 57 67 75 82 87 90 90 89 88 88 90 93 98 107 116 123 125 121 102 39 4 359 6
10 10 10 9 6 3 2 2 4 8 12 13 13 11 9 7 6 5 4 4 3 3 3 3 5 8 11 13 13 13 12 12 13 12 12 14 18 25 30 33 34 35 36 34 33 39 51 63 73 81 88 93 95 95 94 94 95 97 99 100 97 90 78 67 55 45 37 32 30
10 10 9 8 6 4 4 5 9 12 14 13 11 9 7 5 4 3 4 4 4 4 5 6 8 11 14 15 15 14 14 14 15 15 15 16 20 26 32 35 35 33 31 28 28 32 40 50 60 68 75 81 84 86 87 88 88 86 83 78 73 66 59 52 47 44 41 38 34
10 10 10 8 6 5 6 8 11 13 14 12 9 7 4 3 2 2 3 4 5 5 6 8 10 13 15 17 16 15 15 15 15 16 17 18 20 25 30 36 36 33 29 26 26 28 32 39 46 53 59 64 67 69 72 74 74 72 68 64 59 54 48 43 38 36 34 33 31
10 10 9 7 6 6 8 10 12 13 12 10 7 5 2 1 0 2 3 4 5 6 8 9 11 14 16 17 17 16 16 16 16 16 17 19 21 24 29 36 38 35 30 27 28 29 30 32 36 41 45 49 51 53 56 58 58 56 53 49 45 41 36 30 26 23 22 22 22
10 10 9 7 7 8 9 11 11 11 10 8 6 3 1 359 359 1 3 4 5 6 8 10 12 14 16 17 17 17 17 17 17 17 18 20 22 25 29 36 39 37 32 29 30 31 31 31 32 34 36 38 39 40 40 40 39 37 34 31 28 25 22 18 14 10 8 9 9
11 10 9 7 7 8 10 11 10 9 8 7 4 2 359 358 358 360 2 3 4 5 7 9 12 15 16 17 18 17 17 17 17 18 19 21 24 25 29 35 40 38 34 32 33 33 33 32 31 31 32 34 35 34 31 27 23 18 16 15 14 13 12 10 7 4 2 2 3
11 10 8 7 7 9 10 9 9 8 7 5 2 360 357 356 357 359 1 2 2 3 5 8 11 14 16 17 18 18 18 17 17 18 19 22 25 26 28 33 39 40 36 33 35 36 37 36 34 32 32 33 34 34 31 24 15 7 5 6 7 9 9 8 7 5 5 7 9
11 9 7 6 7 8 9 8 7 6 5 3 0 358 356 356 357 360 1 1 1 2 4 6 10 13 16 17 18 18 18 18 18 18 19 21 25 26 28 31 37 40 38 34 36 38 40 39 38 36 34 33 32 32 29 24 16 8 5 6 9 11 14 16 15 14 14 15 17
10 9 6 4 6 8 8 7 6 4 3 1 359 357 355 356 358 0 1 1 1 1 2 4 8 13 16 17 18 18 18 18 18 18 19 21 24 26 27 28 33 38 38 36 37 39 40 41 40 39 37 34 33 31 28 24 19 13 8 4 3 5 8 12 14 15 16 17 19
10 8 5 3 4 6 6 5 4 3 1 360 358 356 356 357 0 2 2 1 1 1 1 3 8 12 15 17 19 19 19 18 18 18 20 21 23 25 26 27 30 34 37 37 36 37 39 40 41 40 39 37 35 33 31 27 23 17 10 2 354 349 350 353 359 3 7 11 16
10 8 5 3 3 4 4 3 2 1 0 359 358 357 357 360 2 3 3 2 2 2 2 3 7 11 14 16 18 19 19 18 18 18 20 21 23 24 26 26 27 30 33 35 36 34 34 36 38 39 39 38 37 36 34 31 28 23 17 9 359 351 344 343 345 350 355 0 8
11 9 6 3 1 1 2 2 1 -0 359 359 358 358 359 2 4 5 5 6 6 5 5 5 7 10 12 14 17 19 19 18 17 18 19 20 22 24 25 26 26 26 29 33 35 32 29 29 31 33 35 36 36 36 35 34 32 28 24 19 11 2 353 346 342 341 343 347 349
11 10 7 4 1 360 360 360 359 359 359 359 358 359 1 4 7 8 8 10 10 9 7 7 8 10 11 13 16 18 18 17 17 17 18 19 21 22 24 25 25 25 26 30 33 30 25 24 24 26 28 30 31 32 32 32 31 30 29 26 21 16 8 360 352 346 342 338 333
12 10 8 5 2 359 359 358 358 358 358 359 359 1 4 8 10 11 12 12 12 10 9 9 10 11 12 14 16 17 17 17 16 16 17 17 19 21 22 23 24 25 25 26 29 28 25 20 19 20 23 25 27 27 27 27 27 27 27 27 25 23 19 15 9 3 357 350 339
14 11 8 6 3 1 359 357 356 356 358 360 1 3 6 10 12 14 14 14 13 11 10 10 11 12 13 15 17 18 17 16 15 15 15 16 17 19 20 20 22 24 25 23 23 25 25 19 15 15 18 21 23 24 24 23 23 23 23 23 23 23 21 20 18 16 12 7 -0
15 12 10 7 4 3 1 358 356 355 357 359 2 4 6 10 13 14 15 14 13 12 11 11 12 13 14 16 18 18 17 15 14 14 14 15 16 17 17 17 19 23 24 21 20 22 23 20 14 12 13 16 19 21 21 21 20 20 20 20 20 19 19 19 19 19 17 15 13
16 13 11 8 5 4 2 360 357 355 356 358 1 4 6 9 12 13 14 14 14 13 12 12 13 14 14 15 17 17 16 14 13 13 13 14 16 16 15 15 17 21 22 20 18 19 20 19 15 11 9 11 14 16 18 19 18 18 17 17 17 17 16 16 17 18 18 17 16
17 14 12 9 6 4 3 1 359 356 355 356 359 2 5 8 10 11 12 13 13 14 14 14 15 14 13 14 14 14 13 12 12 12 13 14 15 15 14 14 16 20 22 20 17 16 16 17 15 11 8 8 9 12 14 15 16 15 15 15 14 14 13 14 14 15 16 16 15
17 15 12 10 7 5 3 2 1 358 355 353 355 359 2 5 6 6 7 9 12 14 15 16 16 15 13 12 11 10 9 9 9 10 12 13 15 15 15 15 16 19 22 22 18 14 13 14 14 12 9 7 6 7 9 11 13 13 13 12 12 11 10 11 12 13 14 14 14
17 16 13 11 8 6 4 3 2 -0 357 354 352 354 357 360 0 1 2 5 9 13 15 16 17 16 14 10 7 6 6 6 7 8 10 12 13 14 14 15 17 19 23 24 20 15 12 13 13 13 11 7 5 4 5 7 9 10 10 10 9 9 8 8 9 11 12 12 12